Location: Mount Cross
(36.6390°N, 79.4878°W)
Time: 12:14:57
(UTC+00:00)

Courier 1B Rocket - Visible Passes

Search period start: 26 March 2023 00:00
Search period end: 05 April 2023 00:00
Orbit: 920 x 1202 km, 28.2° (Epoch: 25 March)

Date Brightness Start Highest point End Pass type
(mag) Time Alt. Az. Time Alt. Az. Time Alt. Az.
26 Mar 5.9 01:05:03 10° SW 01:11:03 31° SSE 01:12:33 28° SE visible
26 Mar 7.2 02:57:47 10° WSW 02:58:56 15° WSW 02:58:56 15° WSW visible
27 Mar 6.3 00:04:18 10° SW 00:10:05 26° SSE 00:15:28 10° ESE visible
27 Mar 5.8 01:56:40 10° WSW 02:01:51 37° SSW 02:01:51 37° SSW visible
28 Mar 5.8 00:55:36 10° SW 01:02:02 37° S 01:04:44 27° SE visible
28 Mar 6.8 02:48:45 10° WSW 02:51:06 21° WSW 02:51:06 21° WSW visible
28 Mar 6.1 23:54:37 10° SW 00:01:01 33° SSE 00:07:01 10° ESE visible
29 Mar 5.6 01:47:31 10° WSW 01:53:55 42° S 01:53:55 42° S visible
30 Mar 5.8 00:46:19 10° WSW 00:53:01 41° S 00:56:43 23° ESE visible
30 Mar 6.6 02:39:46 10° WSW 02:43:05 26° SW 02:43:05 26° SW visible
31 Mar 5.6 01:38:25 10° WSW 01:45:03 41° S 01:45:50 40° S visible
01 Apr 5.8 00:37:07 10° WSW 00:44:01 43° S 00:48:35 19° ESE visible
01 Apr 6.5 02:30:52 10° WSW 02:34:56 27° SW 02:34:56 27° SW visible
02 Apr 5.8 01:29:24 10° WSW 01:36:01 38° S 01:37:40 34° SSE visible
02 Apr 7.5 03:23:54 10° WSW 03:24:02 10° WSW 03:24:02 10° WSW visible
03 Apr 5.9 00:28:01 10° WSW 00:34:58 42° S 00:40:23 15° ESE visible
03 Apr 6.5 02:22:05 10° WSW 02:26:45 26° SW 02:26:45 26° SW visible
04 Apr 6.2 01:20:28 10° WSW 01:26:56 34° SSW 01:29:29 26° SSE visible
04 Apr 7.5 03:15:50 10° WSW 03:15:51 10° WSW 03:15:51 10° WSW visible
